Regional Weather Roundup
Issued by NWS

Home | Current Version | Previous Version | Graphics & Text | Print | Product List | Glossary On
Versions: 1 2 3 4 5 6 7 8 9 10 11 12 13 14 15 16 17 18 19 20 21 22 23 24 25 26 27 28 29 30 31 32 33 34 35 36 37 38 39 40 41 42 43 44 45 46 47 48 49 50
099
ASUS45 KSLC 280010
RWRUT

UTAH REGIONAL WEATHER ROUNDUP
NATIONAL WEATHER SERVICE SALT LAKE CITY UT
500 PM MST MON FEB 27 2017

UTZ001>011-023>025-280100-

NORTHERN UTAH

CITY           SKY/WX    TMP DP  RH WIND       PRES   REMARKS
BRIGHAM CITY     N/A     33  22  65 N13       29.78R WCI  24
DUGWAY         PTSUNNY   35  17  48 NW12      29.76R WCI  26
HILL AFB       CLOUDY    31  16  53 W9        29.75R WCI  23
LOGAN          CLOUDY    30  22  72 NW12      29.77R WCI  20
OGDEN          CLOUDY    33  18  53 W9        29.76R WCI  25
SALT LAKE CITY CLOUDY    31  27  85 W8        29.78S WCI  23
TOOELE VALLEY  CLOUDY    34  27  75 W6        29.78R WCI  29
WENDOVER       SUNNY     37   7  28 NW18      29.77R WCI  27
HEBER CITY     LGT SNOW  27  23  86 E6        29.73R WCI  20
WEST JORDAN    CLOUDY    32  32 100 N7        29.78R WCI  26

$$

UTZ011>015-024>027-280100-

CENTRAL/NORTHEAST UTAH

CITY           SKY/WX    TMP DP  RH WIND       PRES   REMARKS
PROVO AIRPORT  SNOW      30  27  86 S3        29.80R VSB 1/2
MOAB/CANYONLAN CLOUDY    50  19  29 SW25      29.62R
DELTA          CLOUDY    28  27  93 N12       29.79R WCI  18
PRICE          CLOUDY    33  23  66 W13       29.66R WCI  24
ROOSEVELT      CLOUDY    34  25  69 W18       29.67R WCI  23
VERNAL         CLOUDY    31  25  78 E3        29.65R

$$

UTZ013>016-019>022-027-280100-

SOUTHERN UTAH

CITY           SKY/WX    TMP DP  RH WIND       PRES   REMARKS
BRYCE CANYON   CLOUDY    31  21  66 W17G29    29.74R WCI  19
CEDAR CITY     FLURRIES  37  30  75 SW14G23   29.73R WCI  28
MILFORD        CLOUDY    42  26  53 SW24G31   29.72R
ST GEORGE      CLOUDY    50  36  58 S13       29.76S
HANKSVILLE     CLOUDY    50  19  29 SW21G30   29.68R
BLANDING       CLOUDY    42  27  54 SW18G31   29.83R

$$

REGIONAL REPORTS     COLORADO/ARIZONA

CITY           SKY/WX    TMP DP  RH WIND       PRES   REMARKS
CRAIG, CO      HVY SNOW  24  20  84 NW8       29.66R VSB 1/4 WCI  15
GRAND JUNCTION CLOUDY    49  15  25 SW17G29   29.64S
RIFLE, CO      CLOUDY    42  25  50 SW16      29.63F
MONTROSE, CO   CLOUDY    44  19  36 SW15G28   29.73S
CORTEZ, CO     CLOUDY    43  26  51 SW18G32   29.82R
COLORADO CITY  DRIZZLE   41  36  81 S5        29.81F
PAGE, AZ       CLOUDY    46  31  55 NW10      29.75R
GRAND CANYON   LGT SNOW  33  33 100 SW15G23   29.83S FOG     WCI  23
KINGMAN, AZ    CLOUDY    48  43  82 SW21      29.81S
FLAGSTAFF, AZ  HVY SNOW  31  31 100 SW15      29.85R VSB 1/4 WCI  20

$$

REGIONAL REPORTS    NEVADA/IDAHO/WYOMING

CITY           SKY/WX    TMP DP  RH WIND       PRES   REMARKS
LAS VEGAS, NV  CLOUDY    56  33  42 S15G24    29.73S
ELY, NY        PTSUNNY   27  15  61 N6        29.74S WCI  20
ELKO, NV       PTSUNNY   32  10  40 W12       29.76R WCI  23
POCATELLO, ID  MOSUNNY   26  19  74 SW26      29.73R WCI  10
BURLEY, ID     LGT RAIN  33  17  51 W15G23    29.74R WCI  23
FORT BRIDGER,  CLOUDY    22  20  91 W18       29.68R WCI   8
EVANSTON, WY   LGT SNOW  19  14  81 W20       29.66R VSB 3/4 WCI   3
ROCK SPRINGS,  CLOUDY    23  15  71 W21       29.63R WCI   8

$$




USA.gov is the U.S. government's official web portal to all federal, state and local government web resources and services.